Temperature
16 16 16 16 16 16 16 16 15 14 14 14 13 13 14 14 14 14 14 14 13 13 13 13 13 13 13 13 12 12 12 12 12 12 12 12 12 12
16 16 16 16 16 16 16 15 15 15 14 14 14 13 13 13 13 13 13 13 13 13 13 13 13 13 12 12 12 12 12 12 12 12 12 12 12 11
16 16 16 16 16 15 15 15 15 15 15 14 13 13 13 13 13 13 13 13 13 13 13 13 12 12 12 12 12 12 12 11 11 11 11 11 11 11
16 16 16 15 15 15 15 15 15 15 15 14 13 13 13 13 13 12 12 12 12 12 12 12 12 12 12 12 11 11 11 11 11 11 11 11 11 10
15 15 15 15 15 15 15 15 15 15 14 14 13 13 13 12 12 12 12 12 12 12 12 12 12 11 11 11 11 11 11 11 10 10 10 10 10 10
15 15 15 15 15 15 15 15 14 14 14 14 13 13 12 12 12 12 12 12 12 11 11 11 11 11 11 11 11 10 10 10 10 10 10 10 9 9
15 15 15 15 15 15 15 15 14 14 14 13 13 13 12 12 12 12 12 12 11 11 11 11 11 11 11 11 11 10 10 10 10 9 9 9 9 9
14 14 14 14 14 14 14 14 14 14 14 13 13 13 12 12 12 12 12 11 11 11 11 11 11 11 11 11 11 10 10 10 10 9 9 9 9 9
14 14 14 14 14 14 14 14 14 14 14 13 13 13 12 12 12 12 12 12 11 11 11 11 11 11 10 10 10 10 10 10 9 9 9 9 9 8
14 14 14 14 13 13 13 13 13 13 13 13 13 13 12 12 12 12 12 12 11 11 11 11 11 10 10 10 10 10 10 10 9 9 9 9 8 8
14 14 14 14 13 13 13 13 13 13 13 12 12 12 12 12 12 12 12 11 11 11 11 11 11 10 10 10 10 10 10 9 9 9 9 8 8 8
14 14 14 13 13 13 13 13 13 12 12 12 12 12 12 12 12 11 11 11 11 11 11 11 10 10 10 10 10 10 9 9 9 9 8 8 8 8
13 13 13 13 13 13 13 12 12 12 12 12 12 12 12 11 11 11 11 11 11 11 10 10 10 10 10 10 9 9 9 9 9 9 8 8 8 8
13 13 13 13 13 13 12 12 12 12 12 12 12 12 11 11 11 11 11 11 11 11 10 10 10 10 10 10 9 9 9 9 9 8 8 8 8 8
13 13 13 13 12 12 12 12 12 12 12 12 12 12 11 11 11 11 11 11 11 11 10 10 10 10 10 9 9 9 9 9 8 8 8 8 8 8
13 13 13 12 12 12 12 12 12 12 12 12 12 12 12 11 11 11 11 11 10 10 10 10 10 10 10 9 9 9 9 9 8 8 8 8 8 8
12 12 12 12 12 12 12 12 11 11 11 11 11 11 11 11 11 11 11 10 10 10 10 10 10 10 10 9 9 9 9 9 9 8 8 8 8 7
12 12 12 12 12 12 12 11 11 11 11 11 11 11 11 11 11 11 10 10 10 10 10 10 9 9 9 9 9 9 9 8 8 8 8 8 8 7
12 11 11 11 11 11 11 11 11 11 11 11 11 10 10 10 10 10 10 10 10 10 10 9 9 9 9 9 9 9 8 8 8 8 8 8 7 7
11 11 11 11 11 11 11 11 11 11 11 10 10 10 10 10 10 10 10 10 10 9 9 9 9 9 8 8 8 9 9 8 8 8 8 8 7 7
11 11 11 11 11 11 11 11 11 10 10 10 10 10 10 10 10 10 10 10 9 9 9 9 9 9 9 8 8 8 8 8 8 8 8 8 7 7
11 11 11 11 11 11 10 10 10 10 10 10 10 9 9 9 9 9 9 9 9 9 9 9 9 8 8 8 8 8 8 8 8 8 8 8 7 7
11 11 11 11 11 10 10 10 10 10 10 9 9 9 9 9 9 9 9 9 9 9 8 8 8 8 8 8 8 8 8 8 8 8 8 7 7 7
Wind_Speed
2 2 2 1 1 2 2 3 3 2 1 1 1 2 6 7 8 9 10 11 11 11 11 10 10 10 9 9 8 7 6 5 5 5 5 4 4 4
2 3 2 1 1 1 1 1 1 3 2 1 1 2 4 6 7 9 11 11 11 11 11 11 11 11 10 10 10 9 8 7 7 6 6 5 5 5
3 3 3 3 1 1 0 1 2 2 4 2 3 3 3 4 5 7 10 9 9 10 11 11 11 11 10 10 9 9 8 8 7 7 6 6 5 5
4 4 3 3 3 1 1 2 2 3 5 5 3 3 3 3 3 3 7 8 9 10 11 11 10 10 10 9 9 8 8 7 7 7 6 5 5 5
5 5 5 5 4 3 3 2 2 3 5 6 4 3 2 2 2 2 5 5 8 9 10 9 9 9 9 8 8 7 7 7 6 6 6 6 6 5
6 6 6 5 5 4 4 3 3 4 5 5 5 3 2 1 2 2 3 2 3 6 7 8 9 8 8 7 7 6 6 5 5 5 5 5 5 5
6 6 7 9 10 6 4 4 4 3 3 4 4 3 2 1 1 1 2 2 2 2 3 5 7 6 6 6 6 6 5 4 4 3 3 3 3 3
4 4 6 7 8 9 10 8 6 4 3 3 3 3 2 1 0 1 1 2 1 1 2 3 6 4 7 7 8 7 6 5 4 2 1 0 0 1
3 3 4 5 4 4 6 7 8 7 6 3 3 3 2 1 1 1 1 2 1 1 2 2 3 3 6 9 12 11 9 7 5 4 3 3 3 3
4 4 4 4 4 3 4 5 4 4 3 3 3 3 3 1 0 0 1 2 2 1 1 0 1 1 4 8 12 13 11 10 8 7 6 5 5 5
4 4 3 4 5 4 3 3 3 2 4 6 6 5 4 4 3 1 1 0 1 1 0 0 1 1 2 3 8 13 12 11 10 9 8 7 6 6
4 4 6 5 5 5 2 1 2 1 1 3 3 3 3 3 2 0 0 1 1 0 0 0 1 0 1 1 3 6 8 9 10 10 10 9 8 6
3 3 3 4 4 3 2 1 1 1 2 3 3 3 2 2 2 2 1 0 1 1 0 1 1 1 1 1 1 3 5 5 6 7 10 10 9 7
2 3 3 4 1 1 1 2 4 4 2 2 2 3 3 2 3 4 4 4 3 2 1 1 1 1 1 1 1 1 2 4 5 5 6 8 10 11
3 4 4 3 2 2 3 4 3 2 2 2 1 1 2 2 2 3 3 4 4 4 4 3 2 2 2 2 1 1 1 2 3 3 4 5 5 5
2 3 4 5 4 4 2 3 2 2 2 2 1 1 1 2 2 2 2 2 2 3 4 6 6 4 3 2 2 2 1 2 2 2 2 3 5 6
2 2 2 3 3 3 2 2 2 2 3 3 2 2 1 2 2 2 1 1 2 2 2 1 3 4 2 2 2 2 2 3 2 2 2 3 3 3
3 3 3 3 3 3 3 2 3 2 3 3 3 2 2 2 1 1 1 2 2 2 1 1 1 1 2 2 3 3 3 3 3 3 2 2 3 3
2 3 3 2 2 2 2 2 2 2 2 3 3 2 2 2 1 1 1 1 1 1 1 1 1 1 3 4 3 4 3 3 3 3 3 3 3 3
3 3 3 2 2 2 2 2 1 1 1 2 2 2 2 2 1 1 1 1 2 2 2 1 1 2 3 4 4 4 6 4 3 3 3 3 3 2
3 3 3 2 2 2 2 2 2 2 1 2 1 2 2 1 1 2 1 1 2 2 2 2 3 4 4 2 3 3 3 7 6 4 3 3 3 2
4 4 4 3 2 2 2 2 2 2 2 2 2 2 2 2 2 2 2 2 2 2 3 2 2 2 3 3 4 5 4 3 5 7 7 6 3 3
4 4 3 3 3 2 2 2 3 2 2 2 2 2 2 2 2 3 3 3 2 3 3 3 2 3 4 4 4 4 4 4 2 2 4 9 11 12
Wind_Direction
17 25 10 36 106 137 139 161 169 176 158 151 118 95 104 106 115 107 99 90 89 89 87 83 82 86 88 87 86 84 80 75 71 70 67 65 61 52
41 45 36 30 49 93 119 171 165 157 154 147 126 125 119 120 126 122 116 107 99 99 95 91 90 90 89 87 86 84 79 75 75 77 74 68 64 57
33 51 43 45 49 63 73 100 109 126 135 124 100 109 97 108 129 128 126 119 110 108 107 104 99 95 94 91 88 86 83 79 75 72 68 64 63 57
38 41 38 46 53 53 67 82 96 113 129 128 123 121 121 130 146 143 135 132 128 124 120 115 111 107 102 98 94 91 87 81 73 68 64 61 66 64
42 42 39 42 41 43 59 68 91 109 119 131 131 124 126 135 130 128 124 134 137 138 134 132 128 123 118 112 105 99 93 87 80 73 69 63 61 60
54 54 51 47 40 45 63 60 82 99 111 121 124 125 108 133 132 144 136 146 138 145 145 148 147 137 132 127 123 117 108 98 89 82 73 64 54 49
71 73 73 70 60 54 72 63 74 88 111 118 120 113 99 120 163 195 145 153 138 139 154 165 165 161 157 156 150 143 133 122 111 98 87 74 57 44
83 90 101 84 78 72 71 69 67 84 89 103 107 119 117 129 197 169 131 144 161 179 175 178 171 170 174 172 171 166 164 164 164 162 154 134 341 332
81 77 86 82 76 85 83 77 68 64 74 90 103 114 129 137 201 207 178 156 150 198 189 182 169 162 165 171 177 181 184 188 195 202 216 234 254 278
82 76 80 66 45 54 99 96 88 65 67 85 88 83 87 71 318 218 250 163 149 100 74 190 177 172 156 166 184 189 196 202 209 216 229 243 254 267
88 73 80 71 35 41 105 112 108 115 97 97 105 110 104 80 50 27 359 19 168 135 89 261 234 228 157 156 185 196 204 212 219 225 231 242 257 267
117 100 74 70 52 37 86 113 128 153 132 139 141 164 167 161 145 150 321 312 325 13 129 239 251 250 248 182 182 196 210 223 228 233 238 243 251 252
136 124 107 96 71 39 24 23 333 290 247 199 172 168 169 175 179 184 186 213 309 303 131 169 266 278 236 253 204 193 200 210 220 236 243 248 249 238
108 112 125 139 131 344 338 339 331 316 270 229 182 178 183 188 191 184 192 208 212 208 231 154 279 282 283 285 287 235 213 210 212 219 224 233 243 246
82 114 143 176 222 246 247 278 300 294 282 274 243 208 185 192 191 188 199 213 224 228 225 219 225 275 273 263 267 260 253 234 215 223 216 204 213 224
126 151 186 212 242 270 258 247 239 272 293 286 274 258 219 184 193 194 202 201 212 235 233 223 225 230 254 269 277 277 270 260 253 248 245 238 225 224
176 195 213 211 218 225 229 229 222 236 266 283 287 273 252 224 211 202 211 226 232 241 240 234 245 245 232 242 275 283 280 274 264 260 255 259 250 219
186 214 221 230 236 230 220 221 228 236 248 249 259 269 270 261 251 228 213 232 261 258 239 214 239 263 276 280 250 262 269 274 279 272 261 263 264 240
214 246 248 240 252 250 241 234 228 225 240 255 250 255 270 271 260 250 247 257 270 265 253 229 232 254 276 285 281 256 255 267 272 278 269 263 264 246
237 256 263 249 257 279 275 267 252 229 224 252 255 266 273 280 291 285 264 280 292 289 278 265 250 253 264 269 274 272 252 246 246 257 272 278 277 251
229 247 255 245 243 255 272 275 262 244 236 249 247 267 273 273 289 294 285 261 269 272 274 267 253 241 245 253 270 266 252 239 235 232 247 266 283 283
231 236 243 238 230 238 247 254 257 247 232 245 244 240 253 265 270 280 290 287 278 282 282 270 254 258 264 268 275 276 263 239 238 251 248 242 235 251
228 235 237 226 226 235 242 248 257 264 250 245 244 246 249 248 263 266 263 275 294 297 293 294 300 287 275 268 275 284 289 281 248 230 259 258 249 246
Height
1540 1539 1539 1540 1540 1540 1540 1540 1541 1542 1543 1544 1545 1545 1544 1544 1543 1543 1543 1543 1542 1542 1542 1541 1540 1541 1541 1541 1541 1542 1542 1542 1542 1542 1542 1542 1542 1542
1539 1538 1538 1538 1539 1539 1539 1539 1540 1540 1540 1542 1543 1544 1544 1544 1543 1543 1543 1543 1542 1542 1541 1541 1540 1540 1540 1541 1541 1541 1541 1541 1541 1541 1541 1540 1540 1540
1538 1538 1537 1538 1538 1538 1538 1539 1539 1540 1540 1541 1542 1543 1543 1543 1543 1543 1543 1543 1542 1542 1542 1541 1541 1540 1540 1540 1541 1540 1540 1540 1540 1540 1539 1539 1539 1538
1538 1537 1537 1537 1537 1537 1537 1538 1538 1539 1539 1540 1541 1542 1543 1543 1543 1544 1543 1543 1543 1543 1542 1542 1541 1541 1540 1540 1540 1540 1540 1539 1539 1538 1538 1537 1537 1536
1538 1537 1537 1537 1536 1537 1537 1538 1538 1539 1539 1540 1541 1542 1542 1543 1543 1544 1544 1544 1544 1543 1543 1542 1542 1541 1541 1541 1540 1540 1539 1539 1538 1537 1537 1536 1535 1534
1538 1538 1537 1537 1537 1537 1537 1538 1538 1539 1539 1540 1541 1542 1542 1543 1543 1544 1544 1544 1544 1543 1543 1543 1542 1542 1541 1541 1540 1539 1539 1538 1537 1536 1536 1535 1534 1533
1538 1538 1538 1538 1538 1538 1538 1538 1538 1539 1539 1540 1540 1541 1541 1542 1542 1543 1543 1544 1544 1544 1543 1543 1542 1541 1541 1540 1540 1539 1538 1538 1537 1536 1535 1534 1533 1533
1539 1539 1539 1539 1538 1538 1538 1538 1539 1539 1540 1540 1540 1541 1541 1542 1542 1542 1543 1543 1543 1544 1543 1543 1542 1541 1541 1540 1539 1539 1538 1537 1537 1536 1535 1534 1533 1532
1539 1539 1539 1539 1539 1539 1539 1539 1540 1540 1541 1541 1541 1541 1541 1542 1542 1542 1542 1542 1542 1542 1542 1542 1542 1540 1540 1539 1539 1538 1538 1537 1536 1535 1534 1533 1532 1531
1539 1539 1539 1539 1539 1539 1540 1540 1540 1540 1541 1541 1541 1541 1541 1541 1541 1542 1542 1542 1542 1542 1542 1541 1541 1541 1540 1539 1539 1538 1537 1537 1536 1535 1533 1532 1531 1530
1539 1539 1539 1539 1540 1540 1540 1540 1540 1540 1541 1541 1541 1541 1541 1541 1541 1541 1541 1541 1541 1541 1541 1540 1540 1540 1539 1539 1538 1537 1537 1536 1535 1533 1532 1531 1530 1529
1539 1539 1539 1539 1539 1540 1540 1540 1540 1540 1540 1540 1540 1540 1540 1540 1540 1540 1540 1540 1540 1540 1539 1539 1539 1538 1538 1537 1536 1536 1535 1534 1533 1532 1531 1529 1528 1527
1539 1538 1539 1539 1539 1539 1539 1540 1540 1540 1540 1540 1540 1539 1539 1539 1539 1539 1539 1539 1539 1538 1538 1537 1537 1537 1536 1535 1535 1534 1533 1532 1531 1530 1529 1527 1526 1525
1538 1538 1538 1538 1538 1538 1539 1539 1539 1539 1539 1539 1539 1538 1538 1538 1538 1538 1538 1537 1537 1537 1537 1536 1535 1535 1534 1533 1533 1532 1531 1530 1529 1528 1527 1525 1524 1523
1537 1537 1537 1537 1537 1537 1538 1538 1538 1538 1538 1538 1538 1538 1537 1537 1537 1536 1536 1536 1535 1535 1535 1534 1534 1533 1532 1531 1530 1530 1529 1528 1527 1526 1524 1523 1521 1520
1536 1536 1536 1536 1536 1536 1536 1536 1536 1536 1536 1536 1536 1536 1536 1536 1535 1535 1534 1534 1533 1533 1532 1532 1531 1531 1530 1529 1528 1527 1526 1526 1524 1523 1522 1520 1519 1517
1534 1534 1534 1534 1534 1534 1534 1534 1534 1534 1533 1533 1533 1533 1533 1533 1533 1533 1532 1532 1531 1530 1529 1529 1528 1528 1527 1527 1525 1524 1524 1523 1522 1520 1519 1517 1516 1515
1533 1532 1532 1532 1532 1532 1532 1531 1531 1531 1530 1531 1530 1531 1531 1530 1530 1530 1529 1529 1528 1528 1527 1526 1526 1525 1524 1523 1523 1522 1521 1520 1519 1517 1516 1514 1513 1512
1530 1530 1530 1530 1530 1530 1530 1529 1528 1528 1528 1528 1528 1528 1528 1528 1527 1527 1527 1526 1525 1525 1525 1524 1523 1522 1521 1520 1519 1519 1518 1516 1515 1514 1513 1511 1510 1509
1527 1527 1527 1527 1527 1527 1527 1526 1526 1525 1525 1525 1525 1525 1525 1525 1524 1524 1524 1523 1522 1522 1522 1521 1520 1519 1518 1518 1516 1515 1514 1513 1512 1510 1509 1508 1507 1506
1524 1524 1524 1524 1524 1524 1524 1523 1523 1523 1522 1522 1522 1521 1521 1521 1521 1521 1521 1520 1519 1519 1518 1518 1517 1516 1515 1514 1513 1511 1511 1510 1509 1507 1506 1505 1503 1502
1520 1521 1521 1521 1521 1521 1520 1520 1520 1520 1519 1519 1519 1518 1518 1518 1518 1518 1517 1517 1516 1515 1515 1514 1514 1513 1512 1511 1509 1508 1507 1506 1505 1504 1503 1502 1500 1498
1517 1517 1517 1517 1517 1517 1517 1517 1517 1517 1516 1515 1515 1515 1515 1515 1514 1514 1514 1514 1513 1512 1511 1510 1510 1509 1508 1507 1506 1504 1503 1502 1501 1499 1499 1498 1497 1496